| time (UTC) | temp F | wind direction | speed MPH | gust MPH | rain 1hr in | rain 24hr in | rain mn in | humidity % | barometer mb |
| 20260509160120 | 61 | 58 | 2.0 | 4.0 | 0.01 | 0.09 | 0.09 | 72 | 1014.3 |
| 20260509154532 | 59 | 221 | 2.0 | 4.0 | 0.01 | 0.09 | 0.09 | 76 | 1014.6 |
| 20260509153043 | 57 | 267 | 3.0 | 6.0 | 0.02 | 0.09 | 0.09 | 84 | 1014.8 |
| 20260509151530 | 56 | 281 | 3.0 | 6.0 | 0.02 | 0.09 | 0.09 | 81 | 1015.0 |
| 20260509150029 | 56 | 287 | 1.0 | 6.0 | 0.01 | 0.09 | 0.09 | 77 | 1015.2 |
| 20260509144532 | 57 | 208 | 3.0 | 5.0 | 0.01 | 0.09 | 0.09 | 76 | 1015.5 |
| 20260509143029 | 58 | 174 | 3.0 | 6.0 | 0.00 | 0.08 | 0.08 | 76 | 1015.5 |
| 20260509141528 | 59 | 213 | 4.0 | 9.0 | 0.01 | 0.08 | 0.08 | 77 | 1015.4 |
| 20260509140128 | 60 | 297 | 2.0 | 4.0 | 0.01 | 0.08 | 0.08 | 79 | 1015.1 |
| 20260509134530 | 61 | 268 | 1.0 | 5.0 | 0.01 | 0.08 | 0.08 | 79 | 1014.8 |
| 20260509133029 | 62 | 304 | 1.0 | 5.0 | 0.01 | 0.08 | 0.08 | 76 | 1014.8 |
| 20260509131532 | 62 | 267 | 2.0 | 4.0 | 0.00 | 0.07 | 0.07 | 67 | 1014.9 |
| 20260509130127 | 62 | 336 | 0.0 | 5.0 | 0.00 | 0.07 | 0.07 | 65 | 1014.9 |
| 20260509124541 | 62 | 34 | 3.0 | 9.0 | 0.00 | 0.07 | 0.07 | 73 | 1015.0 |
| 20260509123035 | 61 | 31 | 4.0 | 9.0 | 0.00 | 0.07 | 0.07 | 72 | 1015.0 |
| 20260509121627 | 62 | 58 | 5.0 | 10.0 | 0.00 | 0.07 | 0.07 | 68 | 1015.3 |
| 20260509120057 | 63 | 35 | 6.0 | 12.0 | 0.00 | 0.07 | 0.07 | 61 | 1015.4 |
| 20260509114551 | 64 | 45 | 2.0 | 10.0 | 0.00 | 0.07 | 0.07 | 62 | 1015.3 |
| 20260509113052 | 62 | 34 | 4.0 | 10.0 | 0.02 | 0.07 | 0.07 | 76 | 1015.3 |
| 20260509111539 | 58 | 24 | 5.0 | 10.0 | 0.02 | 0.07 | 0.07 | 77 | 1015.5 |
| 20260509110038 | 57 | 10 | 4.0 | 6.0 | 0.02 | 0.07 | 0.07 | 79 | 1015.6 |
| 20260509104538 | 58 | 42 | 2.0 | 6.0 | 0.01 | 0.06 | 0.06 | 80 | 1015.6 |
| 20260509103044 | 60 | 45 | 6.0 | 11.0 | 0.00 | 0.06 | 0.06 | 70 | 1015.9 |
| 20260509101555 | 62 | 34 | 8.0 | 13.0 | 0.00 | 0.06 | 0.06 | 63 | 1015.7 |
| 20260509100035 | 62 | 16 | 9.0 | 15.0 | 0.00 | 0.06 | 0.06 | 65 | 1015.8 |
| 20260509094536 | 63 | 346 | 7.0 | 13.0 | 0.00 | 0.06 | 0.06 | 62 | 1015.9 |
| 20260509093031 | 63 | 67 | 5.0 | 11.0 | 0.00 | 0.06 | 0.06 | 63 | 1015.8 |
| 20260509091527 | 62 | 40 | 4.0 | 9.0 | 0.00 | 0.06 | 0.06 | 67 | 1015.9 |
| 20260509090033 | 61 | 62 | 4.0 | 9.0 | 0.00 | 0.06 | 0.06 | 69 | 1016.1 |
| 20260509084517 | 60 | 41 | 5.0 | 11.0 | 0.00 | 0.06 | 0.06 | 72 | 1016.2 |
| 20260509083029 | 58 | 63 | 5.0 | 9.0 | 0.00 | 0.06 | 0.06 | 74 | 1016.2 |
| 20260509081511 | 57 | 51 | 5.0 | 9.0 | 0.00 | 0.06 | 0.06 | 78 | 1016.3 |
| 20260509080007 | 55 | 36 | 4.0 | 9.0 | 0.00 | 0.06 | 0.06 | 80 | 1016.4 |
| 20260509074503 | 54 | 13 | 3.0 | 7.0 | 0.00 | 0.06 | 0.06 | 85 | 1016.6 |
| 20260509073100 | 52 | 67 | 3.0 | 5.0 | 0.00 | 0.06 | 0.06 | 89 | 1016.7 |
| 20260509071552 | 51 | 22 | 2.0 | 6.0 | 0.00 | 0.06 | 0.06 | 90 | 1016.9 |
| 20260509070049 | 50 | 119 | 2.0 | 6.0 | 0.00 | 0.06 | 0.06 | 92 | 1017.0 |
| 20260509064546 | 49 | 66 | 1.0 | 6.0 | 0.00 | 0.06 | 0.06 | 94 | 1017.0 |
| 20260509063044 | 48 | 51 | 1.0 | 4.0 | 0.00 | 0.06 | 0.06 | 95 | 1017.1 |
| 20260509061543 | 47 | 137 | 0.0 | 2.0 | 0.00 | 0.06 | 0.06 | 95 | 1017.4 |
| 20260509060043 | 45 | 61 | 1.0 | 3.0 | 0.00 | 0.06 | 0.06 | 94 | 1017.3 |
| 20260509054535 | 44 | 313 | 1.0 | 3.0 | 0.00 | 0.06 | 0.06 | 94 | 1017.3 |
| 20260509053056 | 44 | 84 | 0.0 | 0.0 | 0.00 | 0.06 | 0.06 | 94 | 1017.1 |
| 20260509051535 | 44 | 24 | 0.0 | 2.0 | 0.01 | 0.06 | 0.06 | 94 | 1017.3 |
| 20260509050028 | 44 | 13 | 0.0 | 3.0 | 0.02 | 0.06 | 0.06 | 94 | 1017.1 |
| 20260509044526 | 44 | 44 | 1.0 | 3.0 | 0.02 | 0.06 | 0.06 | 94 | 1017.0 |
| 20260509043024 | 44 | 97 | 0.0 | 2.0 | 0.02 | 0.06 | 0.06 | 94 | 1016.7 |
| 20260509041522 | 43 | 159 | 0.0 | 2.0 | 0.01 | 0.05 | 0.05 | 93 | 1016.4 |
| 20260509040028 | 43 | 163 | 1.0 | 3.0 | 0.01 | 0.04 | 0.04 | 93 | 1016.4 |
| 20260509034521 | 42 | 250 | 0.0 | 3.0 | 0.02 | 0.04 | 0.04 | 93 | 1016.4 |
| 20260509033021 | 42 | 9 | 0.0 | 2.0 | 0.04 | 0.04 | 0.04 | 93 | 1016.3 |
| 20260509031520 | 42 | 90 | 0.0 | 2.0 | 0.04 | 0.04 | 0.04 | 93 | 1016.2 |
| 20260509030032 | 42 | 110 | 0.0 | 3.0 | 0.03 | 0.03 | 0.03 | 93 | 1016.2 |
| 20260509024519 | 41 | 269 | 0.0 | 3.0 | 0.02 | 0.02 | 0.02 | 92 | 1016.1 |
| 20260509023022 | 41 | 101 | 0.0 | 3.0 | 0.00 | 0.00 | 0.00 | 92 | 1016.2 |
| 20260509021526 | 41 | 250 | 0.0 | 3.0 | 0.00 | 0.00 | 0.00 | 91 | 1016.1 |
| 20260509020016 | 41 | 130 | 0.0 | 3.0 | 0.00 | 0.00 | 0.00 | 91 | 1015.9 |
| 20260509014514 | 41 | 118 | 0.0 | 3.0 | 0.00 | 0.00 | 0.00 | 90 | 1015.9 |
| 20260509013012 | 42 | 73 | 0.0 | 0.0 | 0.00 | 0.00 | 0.00 | 90 | 1015.8 |
| 20260509011510 | 42 | 73 | 0.0 | 0.0 | 0.00 | 0.00 | 0.00 | 89 | 1015.8 |
| 20260509010009 | 43 | 73 | 1.0 | 4.0 | 0.00 | 0.00 | 0.00 | 90 | 1015.8 |
| 20260509004507 | 43 | 184 | 0.0 | 0.0 | 0.00 | 0.00 | 0.00 | 90 | 1015.7 |
| 20260509003009 | 43 | 207 | 0.0 | 4.0 | 0.00 | 0.00 | 0.00 | 89 | 1015.8 |
| 20260509001505 | 43 | 167 | 0.0 | 3.0 | 0.00 | 0.00 | 0.00 | 89 | 1015.8 |
| 20260509000004 | 44 | 158 | 1.0 | 4.0 | 0.00 | 0.00 | 0.00 | 89 | 1016.0 |
| 20260508234502 | 44 | 142 | 0.0 | 0.0 | 0.00 | 0.00 | 0.00 | 89 | 1016.0 |
| 20260508233001 | 44 | 121 | 0.0 | 0.0 | 0.00 | 0.00 | 0.00 | 89 | 1016.0 |
| 20260508231559 | 44 | 121 | 0.0 | 0.0 | 0.00 | 0.00 | 0.00 | 88 | 1016.2 |
| 20260508230057 | 44 | 181 | 0.0 | 0.0 | 0.00 | 0.00 | 0.00 | 88 | 1016.3 |
| 20260508224634 | 44 | 181 | 0.0 | 0.0 | 0.00 | 0.00 | 0.00 | 86 | 1016.3 |
| 20260508223056 | 45 | 181 | 0.0 | 0.0 | 0.00 | 0.00 | 0.00 | 86 | 1016.4 |
| 20260508221552 | 45 | 181 | 0.0 | 0.0 | 0.00 | 0.00 | 0.00 | 86 | 1016.4 |
| 20260508220054 | 46 | 219 | 0.0 | 0.0 | 0.00 | 0.00 | 0.00 | 85 | 1016.4 |
| 20260508214551 | 47 | 206 | 0.0 | 0.0 | 0.00 | 0.00 | 0.00 | 85 | 1016.1 |
| 20260508213049 | 47 | 162 | 0.0 | 2.0 | 0.00 | 0.00 | 0.00 | 84 | 1016.1 |
| 20260508211552 | 48 | 115 | 0.0 | 0.0 | 0.00 | 0.00 | 0.00 | 81 | 1015.8 |
| 20260508210049 | 49 | 115 | 0.0 | 0.0 | 0.00 | 0.00 | 0.00 | 80 | 1015.9 |
| 20260508204548 | 49 | 115 | 0.0 | 2.0 | 0.00 | 0.00 | 0.00 | 81 | 1015.8 |
| 20260508203049 | 50 | 167 | 0.0 | 3.0 | 0.00 | 0.00 | 0.00 | 80 | 1015.7 |
| 20260508201550 | 51 | 179 | 1.0 | 5.0 | 0.00 | 0.00 | 0.00 | 79 | 1015.6 |
| 20260508200048 | 52 | 188 | 1.0 | 3.0 | 0.00 | 0.00 | 0.00 | 77 | 1015.6 |
| 20260508194546 | 53 | 98 | 1.0 | 2.0 | 0.00 | 0.00 | 0.00 | 76 | 1015.3 |
| 20260508193045 | 54 | 5 | 0.0 | 3.0 | 0.00 | 0.00 | 0.00 | 74 | 1015.1 |
| 20260508191548 | 55 | 17 | 2.0 | 4.0 | 0.00 | 0.00 | 0.00 | 72 | 1015.0 |
| 20260508190046 | 56 | 31 | 2.0 | 5.0 | 0.00 | 0.00 | 0.00 | 69 | 1014.8 |
| 20260508184547 | 57 | 355 | 3.0 | 6.0 | 0.00 | 0.00 | 0.00 | 68 | 1014.6 |
| 20260508183046 | 57 | 36 | 3.0 | 6.0 | 0.00 | 0.00 | 0.00 | 68 | 1014.5 |
| 20260508181544 | 58 | 34 | 3.0 | 6.0 | 0.00 | 0.00 | 0.00 | 68 | 1014.3 |
| 20260508180043 | 58 | 5 | 1.0 | 4.0 | 0.00 | 0.00 | 0.00 | 65 | 1014.1 |
| 20260508174551 | 59 | 342 | 2.0 | 6.0 | 0.00 | 0.00 | 0.00 | 63 | 1013.8 |
| 20260508173042 | 60 | 355 | 3.0 | 6.0 | 0.00 | 0.00 | 0.00 | 60 | 1013.7 |
| 20260508171542 | 61 | 5 | 4.0 | 8.0 | 0.00 | 0.00 | 0.00 | 60 | 1013.7 |
| 20260508170041 | 61 | 43 | 2.0 | 6.0 | 0.00 | 0.00 | 0.00 | 57 | 1013.6 |
| 20260508164541 | 62 | 53 | 2.0 | 8.0 | 0.00 | 0.01 | 0.00 | 56 | 1013.6 |
| 20260508163040 | 62 | 24 | 6.0 | 10.0 | 0.00 | 0.01 | 0.00 | 58 | 1013.5 |
| 20260508161538 | 63 | 12 | 6.0 | 11.0 | 0.00 | 0.01 | 0.00 | 57 | 1013.6 |